Wind_Speed
8 8 8 8 8 8 9 8 7 7 6 6 6 6 6 6 5 4 3 2 1 1 1 2 2 2 3 3 4 5 5 5 4 5 5 5 6 6 6 6 5 5 5
9 9 9 9 9 9 9 9 9 8 7 7 7 7 7 7 7 6 4 3 2 1 1 0 1 1 2 2 3 3 3 4 4 4 4 4 5 5 5 5 5 5 5
11 10 10 9 10 10 10 10 10 10 9 9 9 8 8 8 8 7 6 5 4 3 2 2 1 0 1 1 1 2 2 2 3 3 3 3 4 4 4 5 5 5 5
11 11 11 11 11 11 11 11 11 11 10 10 9 9 9 9 8 8 7 7 6 5 4 3 3 2 2 1 1 2 1 1 1 1 2 2 3 3 3 4 4 4 4
12 12 12 12 12 12 12 11 12 12 11 11 11 10 10 10 10 10 9 8 7 7 6 5 5 4 3 3 3 3 2 1 1 0 0 1 1 2 2 3 3 3 4
15 13 13 13 13 13 13 12 12 12 12 12 12 12 12 12 12 11 11 10 9 8 7 7 7 6 5 4 4 4 4 3 3 2 1 1 0 1 1 2 2 3 3
16 16 15 14 14 14 14 14 13 13 13 13 13 13 14 14 14 13 12 12 11 10 9 9 9 8 8 7 6 6 6 5 4 3 3 2 1 1 1 1 1 1 2
16 15 15 15 15 15 15 16 16 15 15 15 15 15 15 15 15 15 14 14 13 12 11 11 11 10 9 9 8 8 7 6 6 5 4 4 3 2 2 1 1 1 2
16 16 16 16 16 16 16 16 17 17 17 16 16 16 17 17 16 16 16 15 15 14 14 13 12 11 11 11 10 9 9 8 7 7 6 6 5 4 4 3 3 3 3
16 16 16 16 16 17 17 17 17 17 17 17 18 18 18 18 18 18 18 17 17 16 16 15 14 14 13 13 12 12 11 10 9 8 8 8 7 6 6 5 5 5 5
17 16 16 17 17 17 17 18 18 18 18 18 19 19 19 19 19 19 19 19 19 18 18 17 16 16 15 14 14 14 13 12 11 11 10 10 10 9 8 8 7 7 7
17 16 17 17 17 17 17 18 18 19 19 19 19 20 20 20 20 20 21 21 21 20 20 19 18 17 17 16 16 16 15 14 13 12 12 12 12 11 11 10 10 9 9
19 17 17 16 16 16 17 17 18 19 20 20 20 21 21 21 21 21 21 21 21 21 21 20 20 19 18 18 17 17 17 15 15 14 13 14 14 13 13 13 12 11 11
22 18 18 17 17 17 17 18 18 19 20 21 22 22 22 22 22 22 22 21 22 22 22 21 21 20 20 20 19 19 19 18 18 17 17 16 15 15 15 15 14 14 13
22 18 17 18 17 18 18 18 19 19 20 21 21 22 22 23 23 23 23 22 23 23 23 23 22 23 22 21 21 21 20 20 19 18 18 17 17 17 17 16 16 16 15
22 18 17 17 17 19 19 19 20 21 21 22 23 24 24 25 24 23 23 23 23 23 23 23 23 24 24 23 23 23 22 22 21 19 19 20 20 19 19 18 18 18 17
18 17 17 18 19 20 20 20 21 22 23 23 25 25 26 26 25 24 24 24 25 24 24 23 23 24 24 24 24 25 25 25 24 22 21 21 21 21 21 21 20 20 19
21 18 18 19 20 21 21 21 22 23 24 25 26 27 27 27 25 25 25 26 26 26 25 25 24 25 25 25 25 26 27 27 25 24 23 23 23 23 23 23 23 22 21
21 20 21 22 21 22 23 24 24 25 25 26 28 28 28 27 27 27 27 27 27 27 27 28 27 26 26 26 27 27 28 29 28 26 25 25 24 25 25 24 23 23 22
22 23 23 24 23 24 25 25 25 26 27 27 28 28 29 28 28 29 29 28 28 28 28 30 30 29 29 28 28 29 28 28 28 27 26 26 25 25 25 25 24 24 24
24 24 25 25 26 26 26 26 26 27 28 28 28 29 30 30 31 30 30 30 29 29 29 30 31 31 30 29 30 30 30 29 29 28 27 27 27 27 28 27 26 26 25
24 25 26 26 27 27 27 27 27 27 28 29 29 30 30 31 31 31 31 30 30 31 31 31 31 31 31 31 31 30 30 29 29 29 29 28 28 28 29 28 27 27 27
25 26 27 27 28 28 28 28 28 29 29 30 30 31 31 31 31 31 31 31 31 32 31 31 30 31 31 31 31 30 30 29 29 30 30 29 29 29 29 29 29 29 29
26 27 27 28 28 29 30 31 31 31 31 32 32 31 31 31 31 31 31 31 31 32 32 32 33 32 32 32 32 31 31 30 30 31 31 30 30 30 30 31 31 30 30
26 26 27 27 28 28 29 30 31 31 31 32 32 32 32 32 31 31 32 32 32 33 33 34 34 33 33 33 32 32 32 32 32 31 30 30 30 31 31 31 30 30 31
26 27 27 27 27 28 28 29 30 30 31 32 32 32 32 31 31 31 31 31 32 32 33 33 33 33 34 34 33 33 33 32 32 31 31 31 31 30 30 30 30 32 33
Wind_Direction
238 229 220 216 212 207 201 198 198 199 208 219 230 240 244 240 236 233 220 209 198 165 94 85 77 73 69 59 51 51 52 50 53 58 60 62 60 59 56 56 55 56 57
240 237 229 224 221 217 212 210 211 211 219 227 237 244 248 247 246 241 237 238 242 248 256 218 59 73 64 51 43 43 46 44 48 58 60 61 61 58 55 54 54 58 59
240 239 236 233 230 226 223 221 221 222 225 230 239 244 248 250 249 245 246 250 253 256 261 264 272 303 353 11 18 17 29 36 45 57 56 56 59 58 55 53 53 54 52
243 240 238 238 235 232 230 229 228 229 232 236 242 243 247 251 253 253 254 256 258 259 262 262 263 271 277 292 308 320 340 15 32 50 54 52 57 58 54 52 51 50 50
247 243 241 240 238 235 234 232 233 234 236 239 244 248 250 253 255 258 259 258 258 260 263 262 263 267 265 267 277 285 293 294 282 304 11 45 56 55 49 49 47 43 41
247 246 245 243 242 240 238 237 238 239 241 242 246 250 252 254 257 260 260 259 260 262 264 265 264 264 266 263 267 272 275 272 265 262 248 248 47 49 38 40 40 40 41
246 247 248 245 243 243 242 241 241 242 245 247 249 252 255 256 258 260 260 261 263 265 265 267 266 265 267 262 263 267 268 267 260 258 256 258 258 289 331 9 22 28 24
245 248 249 248 247 246 246 245 245 245 247 250 253 254 255 257 258 260 261 262 263 265 266 268 266 266 267 264 262 264 266 265 257 252 255 251 253 261 268 275 284 293 314
248 250 251 251 249 248 248 248 247 248 249 251 253 256 257 258 260 261 261 261 262 264 265 267 268 268 266 266 265 265 265 264 258 256 255 255 256 261 263 263 262 268 276
250 250 251 251 251 250 250 248 248 250 251 253 254 256 259 260 261 262 262 262 263 264 265 266 268 268 266 266 265 263 262 265 261 258 255 255 253 257 262 263 264 265 268
253 252 252 252 252 252 252 251 251 252 253 255 257 258 259 260 261 262 264 263 263 264 264 264 264 264 265 265 263 262 262 262 260 254 251 254 255 255 260 262 263 263 263
250 251 250 251 254 252 252 254 254 255 257 258 260 261 261 261 261 261 262 263 263 263 263 263 262 262 262 263 262 262 263 262 264 255 256 256 257 257 260 259 260 260 262
254 256 251 254 256 259 258 257 258 258 259 261 262 263 263 263 261 261 262 263 264 263 261 261 261 262 261 261 261 262 264 264 263 262 260 256 259 260 259 259 260 261 262
252 258 260 264 265 262 261 262 262 264 262 264 265 268 267 266 263 262 264 265 265 264 262 259 260 261 261 261 261 262 264 263 262 263 262 260 261 260 259 258 260 263 264
250 252 262 264 264 265 265 266 266 266 267 268 271 272 270 269 267 264 264 263 263 264 262 259 258 259 260 260 262 262 262 264 263 262 262 261 261 260 257 257 260 263 265
250 253 261 266 270 271 270 269 269 269 270 272 273 272 271 268 266 265 264 265 264 264 265 264 260 260 260 261 262 264 264 263 262 262 259 261 261 259 258 259 260 262 264
265 266 267 270 272 274 274 273 273 273 272 272 271 271 270 269 267 267 268 267 269 266 265 265 263 263 263 263 261 263 265 265 263 263 262 261 259 260 261 261 262 263 265
273 276 272 273 273 274 276 277 277 277 275 274 273 272 273 270 270 268 268 267 268 268 268 269 268 266 265 265 265 264 264 263 264 263 263 263 262 262 262 261 262 263 265
282 281 277 275 274 275 277 278 277 276 275 273 274 274 273 271 269 268 267 267 268 269 268 269 271 268 267 268 267 266 265 264 265 262 262 262 263 263 263 263 264 264 266
282 281 279 276 277 277 277 277 276 276 274 273 275 275 274 272 270 268 266 266 268 268 268 268 269 268 268 269 267 265 265 265 264 262 261 262 263 263 262 262 264 266 266
278 277 277 278 276 276 276 277 276 274 274 273 275 275 275 272 273 271 270 269 268 266 266 268 269 268 268 268 266 263 262 264 262 262 261 262 264 263 263 263 264 265 265
276 277 277 277 277 277 277 276 275 274 272 272 274 274 275 273 272 272 271 269 269 268 268 269 269 267 267 266 264 261 262 262 261 261 263 263 265 264 262 262 263 264 265
278 278 278 277 276 276 275 274 274 274 274 274 274 274 274 274 274 272 271 270 270 268 266 267 267 266 266 264 263 262 262 261 261 261 262 264 264 264 262 262 263 264 266
279 279 279 278 277 276 275 273 273 273 273 274 273 273 273 273 272 273 272 272 270 268 265 264 265 268 265 264 262 261 261 260 262 261 261 263 264 263 263 264 265 265 267
280 280 279 279 278 277 276 275 274 273 274 274 273 273 273 273 272 273 273 272 270 269 266 265 265 266 264 263 259 259 259 259 259 261 261 260 261 262 263 264 265 268 269
283 282 280 277 277 278 278 277 276 275 274 274 274 274 273 273 273 272 272 272 270 269 267 265 264 264 264 262 260 260 259 259 259 259 260 258 261 263 262 264 267 269 269
Height
5892 5892 5893 5893 5894 5895 5896 5896 5897 5898 5899 5900 5900 5901 5901 5901 5901 5901 5901 5900 5900 5900 5899 5899 5899 5898 5898 5898 5898 5897 5897 5897 5897 5896 5896 5896 5896 5896 5896 5896 5896 5896 5896
5891 5891 5892 5893 5894 5894 5895 5896 5897 5898 5899 5899 5900 5901 5901 5901 5901 5901 5901 5901 5900 5900 5900 5899 5899 5899 5898 5898 5898 5897 5897 5897 5897 5897 5897 5897 5897 5897 5897 5897 5896 5896 5896
5890 5890 5891 5892 5893 5894 5894 5895 5896 5897 5898 5898 5899 5900 5900 5901 5901 5901 5901 5900 5900 5900 5900 5899 5899 5899 5899 5898 5898 5898 5897 5898 5898 5897 5897 5897 5897 5897 5897 5897 5897 5897 5897
5888 5889 5890 5891 5892 5893 5893 5894 5895 5896 5897 5897 5898 5899 5899 5900 5900 5900 5900 5900 5900 5900 5899 5899 5899 5899 5899 5898 5898 5898 5897 5898 5898 5898 5898 5897 5897 5897 5897 5897 5897 5897 5897
5887 5888 5888 5889 5890 5891 5892 5893 5894 5894 5895 5896 5897 5897 5898 5898 5899 5899 5899 5899 5899 5899 5899 5899 5899 5899 5898 5898 5898 5898 5898 5898 5898 5898 5898 5898 5897 5898 5898 5897 5897 5897 5897
5886 5886 5887 5888 5888 5889 5890 5891 5892 5893 5893 5894 5895 5896 5896 5897 5897 5898 5898 5898 5898 5898 5898 5898 5898 5898 5898 5898 5897 5897 5897 5897 5897 5898 5898 5898 5897 5898 5898 5898 5898 5898 5898
5883 5884 5885 5886 5886 5887 5888 5889 5890 5891 5891 5892 5893 5894 5895 5895 5896 5896 5896 5896 5897 5897 5897 5897 5897 5897 5897 5897 5897 5896 5897 5897 5897 5897 5898 5898 5897 5897 5898 5898 5898 5898 5898
5881 5882 5882 5883 5884 5885 5886 5887 5888 5888 5889 5890 5891 5891 5892 5893 5893 5894 5894 5894 5895 5895 5895 5895 5896 5895 5896 5896 5896 5896 5896 5896 5896 5897 5897 5897 5897 5897 5897 5897 5897 5898 5898
5878 5879 5880 5880 5881 5882 5883 5884 5885 5886 5887 5888 5888 5889 5890 5890 5891 5891 5892 5892 5893 5893 5894 5894 5894 5894 5894 5894 5894 5894 5894 5894 5895 5895 5896 5896 5896 5897 5897 5897 5897 5897 5898
5875 5876 5877 5877 5878 5879 5880 5881 5882 5883 5884 5885 5885 5886 5887 5887 5888 5888 5889 5889 5890 5891 5891 5891 5892 5892 5892 5892 5893 5893 5893 5893 5894 5894 5895 5895 5895 5896 5896 5896 5896 5896 5897
5872 5873 5873 5874 5875 5876 5877 5878 5879 5880 5881 5882 5882 5883 5883 5884 5885 5885 5886 5886 5887 5888 5888 5889 5889 5890 5890 5890 5890 5891 5891 5892 5892 5892 5892 5893 5893 5894 5894 5895 5895 5895 5896
5867 5868 5869 5871 5871 5873 5874 5875 5876 5876 5877 5878 5879 5879 5880 5881 5881 5882 5882 5883 5884 5884 5885 5885 5886 5887 5887 5888 5888 5888 5888 5889 5889 5889 5890 5891 5891 5892 5893 5893 5894 5894 5894
5862 5863 5866 5867 5867 5870 5871 5871 5872 5873 5874 5875 5875 5876 5876 5877 5877 5878 5878 5878 5880 5881 5881 5882 5883 5883 5884 5885 5885 5885 5886 5887 5886 5886 5887 5888 5889 5890 5890 5891 5892 5892 5892
5857 5860 5862 5864 5864 5866 5867 5868 5868 5869 5870 5870 5871 5872 5872 5873 5874 5875 5874 5875 5875 5876 5877 5878 5879 5880 5881 5882 5882 5883 5883 5883 5884 5884 5885 5885 5886 5887 5888 5888 5889 5890 5890
5852 5854 5858 5860 5860 5862 5863 5863 5864 5864 5865 5865 5866 5867 5867 5869 5870 5871 5871 5871 5871 5872 5872 5872 5874 5875 5876 5877 5879 5880 5880 5880 5880 5881 5882 5883 5883 5884 5885 5885 5886 5887 5887
5847 5849 5852 5855 5857 5858 5858 5859 5860 5860 5861 5862 5862 5862 5862 5863 5864 5865 5866 5866 5866 5868 5868 5867 5869 5871 5872 5873 5874 5875 5876 5876 5877 5877 5878 5880 5880 5881 5881 5882 5883 5883 5884
5843 5845 5848 5851 5853 5853 5854 5854 5855 5856 5856 5857 5857 5857 5855 5857 5859 5861 5861 5862 5861 5863 5864 5864 5865 5866 5867 5868 5869 5870 5871 5872 5873 5873 5875 5875 5876 5877 5878 5878 5879 5880 5880
5840 5843 5844 5846 5847 5848 5849 5849 5850 5851 5851 5852 5852 5852 5851 5852 5854 5856 5857 5857 5857 5858 5859 5860 5861 5861 5862 5863 5864 5865 5866 5867 5867 5869 5870 5871 5871 5873 5873 5874 5875 5875 5876
5837 5839 5841 5842 5841 5843 5844 5844 5844 5845 5846 5846 5846 5846 5846 5846 5848 5850 5851 5851 5852 5853 5854 5855 5856 5856 5857 5858 5858 5859 5861 5861 5862 5863 5864 5866 5866 5868 5868 5869 5870 5871 5871
5834 5835 5836 5836 5836 5838 5838 5839 5839 5840 5840 5840 5840 5840 5840 5841 5842 5844 5845 5845 5846 5848 5849 5849 5850 5851 5851 5852 5853 5854 5855 5855 5856 5858 5859 5860 5861 5862 5863 5864 5865 5866 5866
5831 5831 5831 5832 5833 5833 5833 5833 5833 5834 5834 5834 5834 5834 5834 5835 5836 5837 5838 5838 5839 5841 5842 5842 5843 5844 5845 5845 5846 5847 5848 5849 5850 5852 5853 5854 5855 5856 5858 5859 5859 5860 5861
5827 5827 5827 5827 5827 5827 5827 5827 5828 5828 5828 5828 5829 5829 5829 5829 5829 5830 5831 5832 5833 5834 5835 5835 5836 5837 5838 5838 5839 5840 5842 5844 5844 5846 5847 5848 5849 5850 5851 5852 5853 5854 5855
5822 5822 5822 5821 5821 5821 5821 5821 5821 5821 5822 5822 5822 5822 5822 5823 5823 5824 5824 5825 5826 5826 5827 5828 5829 5830 5830 5831 5832 5833 5835 5837 5838 5840 5840 5842 5843 5843 5844 5846 5847 5848 5848
5817 5817 5816 5816 5816 5815 5815 5815 5815 5815 5815 5815 5815 5816 5816 5816 5816 5817 5817 5818 5819 5819 5820 5821 5822 5823 5823 5824 5825 5826 5828 5830 5831 5833 5834 5835 5836 5837 5838 5839 5840 5841 5842
5812 5812 5811 5810 5810 5809 5808 5808 5808 5808 5808 5808 5808 5808 5809 5809 5809 5810 5810 5811 5811 5811 5812 5813 5814 5815 5816 5817 5818 5819 5820 5822 5824 5826 5827 5828 5830 5831 5832 5832 5833 5834 5835
5807 5806 5805 5805 5804 5803 5802 5802 5801 5801 5801 5801 5801 5801 5801 5802 5802 5802 5802 5803 5803 5804 5805 5805 5807 5808 5809 5810 5811 5812 5814 5815 5816 5818 5820 5821 5822 5824 5825 5825 5827 5827 5828